Location: Bakov nad Jizerou
(50.4784°N, 14.9394°E)
Time: 02:46:04
(UTC+00:00)

Cosmos 1727 Rocket - Pass Details

Date: 30 October 2021
Orbit: 960 x 997 km, 82.9° (Epoch: 07 December)

Event Time Altitude Azimuth Distance (km) Brightness Sun altitude
Rises 17:19:21 0° 338° (NNW) 3,666 7.3 -16.4°
Reaches altitude 10° 17:23:01 10° 316° (NW) 2,710 6.9 -17.0°
Maximum altitude 17:26:17 15° 284° (WNW) 2,356 7.1 -17.5°
Drops below altitude 10° 17:29:32 10° 252° (WSW) 2,696 7.4 -18.0°
Sets 17:33:11 0° 230° (SW) 3,636 7.8 -18.6°
